Regional Weather Roundup
Issued by NWS

Home | Current Version | Previous Version | Text Only | Print | Product List | Glossary Off
Versions: 1 2 3 4 5 6 7 8 9 10 11 12 13 14 15 16 17 18 19 20 21 22 23 24 25 26 27 28 29 30 31 32 33 34 35 36 37 38 39 40 41 42 43 44 45 46 47 48 49 50

000
ASUS43 KLSX 200407
RWRMO

WEATHER SUMMARY FOR MISSOURI
NATIONAL WEATHER SERVICE SPRINGFIELD MO
1100 PM CDT TUE AUG 19 2014

NOTE: "FAIR" INDICATES FEW OR NO CLOUDS BELOW 12,000 FEET WITH NO
       SIGNIFICANT WEATHER AND/OR OBSTRUCTIONS TO VISIBILITY.
       CURRENT SKY AND/OR WEATHER CONDITIONS ARE NOT AVAILABLE FOR
       CHILLICOTHE AND FARMINGTON.

MOZ001>031-035>038-043-044-053-054-200500-
...NORTHERN AND WESTERN MISSOURI...

CITY           SKY/WX    TMP DP  RH WIND       PRES   REMARKS
KANSAS CTY INT CLEAR     79  73  82 SE7       29.81S
KANSAS C DTWN  CLEAR     86  73  65 CALM      29.80R HX  93
LEE`S SUMMIT   CLEAR     82  73  74 S9        29.83R
ST JOSEPH      CLEAR     77  72  84 CALM      29.80S
CHILLICOTHE      N/A     75  73  93 CALM      29.83R
KIRKSVILLE     PTCLDY    71  70  96 CALM      29.85S

$$
MOZ066>068-077>081-088>096-101>105-200500-
...SOUTHWEST MISSOURI...

CITY           SKY/WX    TMP DP  RH WIND       PRES   REMARKS
SPRINGFIELD    CLEAR     77  67  71 SW6       29.90R
JOPLIN         CLEAR     81  70  69 S9        29.88R

$$
MOZ032>034-039>042-045>050-055>058-069>072-200500-
...CENTRAL MISSOURI...

CITY           SKY/WX    TMP DP  RH WIND       PRES   REMARKS
COLUMBIA       CLEAR     74  71  91 S5        29.85R
JEFFERSON CITY CLEAR     73  70  90 CALM      29.83S
ROLLA          CLEAR     73  68  84 CALM      29.86R
SEDALIA        CLEAR     74  71  91 SE3       29.85R
WHITEMAN AFB   CLEAR     75  67  74 S5        29.83R
OSAGE BEACH    CLEAR     77  70  78 CALM      29.86R

$$
MOZ051-052-059>065-200500-
...EAST CENTRAL MISSOURI...

CITY           SKY/WX    TMP DP  RH WIND       PRES   REMARKS
ST LOUIS INTL  PTCLDY    79  71  76 CALM      29.84R
SPIRIT OF STL  CLEAR     73  71  93 CALM      29.82S
ST CHARLES     CLEAR     73  72  96 N3        29.82S

$$
MOZ072>076-082>087-097>100-106>115-200500-
...SOUTH CENTRAL AND SOUTHEAST MISSOURI...

CITY           SKY/WX    TMP DP  RH WIND       PRES   REMARKS
CAPE GIRARDEAU CLEAR     70  67  90 CALM      29.84F
FARMINGTON     CLEAR     73  68  83 CALM      29.88F
POPLAR BLUFF   CLEAR     78  73  84 SW5       29.83F
WEST PLAINS    PTCLDY    80  70  71 SW3       29.91S

$$



USA.gov is the U.S. government's official web portal to all federal, state and local government web resources and services.